Redmond, OR

8:06 AM PDT on April 26, 2018 (GMT -0700)
Roberts Field Airport

Weather History for KRDM - April, 2014

Change the Weather History Date:

Tuesday, April 22, 2014

  Actual Average Record
Temperature  
Mean Temperature 44 °F 45 °F  
Max Temperature 52 °F 61 °F 86 °F (2012)
Min Temperature 36 °F 30 °F 15 °F (1972)
Degree Days  
Heating Degree Days 21 20  
Month to date heating degree days 425 471  
Since 1 July heating degree days 5939 5922  
Cooling Degree Days 0 0  
Month to date cooling degree days 0 0  
Year to date cooling degree days 0 0  
Moisture  
Dew Point 30 °F    
Average Humidity 61    
Maximum Humidity 92    
Minimum Humidity 30    
Precipitation  
Precipitation 0.02 in 0.03 in 0.26 in (2005)
Month to date precipitation 0.47 0.52  
Year to date precipitation 2.98 2.80  
Sea Level Pressure  
Sea Level Pressure 29.87 in    
Wind  
Wind Speed 12 mph (NW)    
Max Wind Speed 25 mph    
Max Gust Speed 33 mph    
Visibility 10 miles    
Events Rain    
T = Trace of Precipitation, MM = Missing Value Source: NWS Daily Summary

Daily Weather History Graph

Daily Weather History Graph

Search for Another Location

Airport or City:

Astronomy

Apr. 22, 2014 Rise Set
Actual Time 6:09 AM PDT 7:57 PM PDT
Civil Twilight 5:38 AM PDT 8:28 PM PDT
Nautical Twilight 5:00 AM PDT 9:06 PM PDT
Astronomical Twilight 4:20 AM PDT 9:47 PM PDT
Moon 2:17 AM PDT (4/22) 12:50 PM PDT (4/22)
Length of Visible Light 14h 50m
Length of Day
13h 48m
Last Quarter, 45% of the Moon is Illuminated
Apr 22
Last Quarter
Apr 28
New
May 6
First Quarter
May 14
Full
May 21
Last Quarter

Hourly Weather History & Observations

Time (PDT) Temp. Windchill Dew Point Humidity Pressure Visibility Wind Dir Wind Speed Gust Speed Precip Events Conditions
12:32 AM 39.9 °F 37.8 °F 37.9 °F 93% 29.82 in 10.0 mi ESE 3.5 mph - 0.01 in Rain Light Rain
12:48 AM 39.9 °F 37.8 °F 37.9 °F 93% 29.82 in 10.0 mi SE 3.5 mph - 0.01 in Rain Light Rain
12:56 AM 39.9 °F 36.7 °F 37.9 °F 93% 29.79 in 10.0 mi SSE 4.6 mph - 0.01 in   Overcast
1:53 AM 41.0 °F 37.1 °F 37.4 °F 87% 29.80 in 10.0 mi East 5.8 mph - 0.01 in Rain Light Rain
1:56 AM 39.9 °F 34.5 °F 37.0 °F 89% 29.78 in 10.0 mi East 8.1 mph - 0.01 in Rain Light Rain
2:52 AM 39.2 °F 35.0 °F 37.4 °F 93% 29.80 in 10.0 mi North 5.8 mph - 0.01 in Rain Light Rain
2:56 AM 39.9 °F 36.7 °F 37.9 °F 93% 29.78 in 10.0 mi North 4.6 mph - 0.01 in Rain Light Rain
3:13 AM 39.9 °F 36.7 °F 37.9 °F 93% 29.79 in 10.0 mi ENE 4.6 mph - 0.00 in   Overcast
3:56 AM 41.0 °F - 37.9 °F 89% 29.77 in 10.0 mi Calm Calm - 0.00 in   Overcast
4:56 AM 39.0 °F 34.8 °F 34.0 °F 82% 29.78 in 10.0 mi NW 5.8 mph - N/A   Overcast
5:56 AM 39.0 °F 35.7 °F 34.0 °F 82% 29.81 in 10.0 mi West 4.6 mph - N/A   Overcast
6:56 AM 39.0 °F 29.9 °F 30.9 °F 73% 29.84 in 10.0 mi WNW 17.3 mph 21.9 mph N/A   Overcast
7:56 AM 37.9 °F 28.9 °F 30.0 °F 73% 29.88 in 10.0 mi WNW 16.1 mph - N/A   Overcast
8:56 AM 39.0 °F 32.3 °F 30.0 °F 70% 29.89 in 10.0 mi WNW 10.4 mph - N/A   Overcast
9:56 AM 43.0 °F 35.7 °F 28.0 °F 56% 29.88 in 10.0 mi NW 15.0 mph - N/A   Mostly Cloudy
10:56 AM 44.1 °F 38.1 °F 26.1 °F 49% 29.90 in 10.0 mi WNW 11.5 mph 23.0 mph N/A   Scattered Clouds
11:56 AM 45.0 °F 37.1 °F 21.9 °F 40% 29.91 in 10.0 mi WNW 19.6 mph 28.8 mph N/A   Scattered Clouds
12:56 PM 46.9 °F - 26.1 °F 44% 29.89 in 10.0 mi NW 12.7 mph 25.3 mph N/A   Partly Cloudy
1:56 PM 48.9 °F - 19.0 °F 31% 29.88 in 10.0 mi WNW 19.6 mph 29.9 mph N/A   Clear
2:56 PM 51.1 °F - 21.0 °F 31% 29.88 in 10.0 mi WNW 19.6 mph 26.5 mph N/A   Clear
3:56 PM 50.0 °F - 24.1 °F 36% 29.88 in 10.0 mi WNW 21.9 mph 28.8 mph N/A   Clear
4:56 PM 46.9 °F - 23.0 °F 39% 29.91 in 10.0 mi WNW 23.0 mph 29.9 mph N/A   Mostly Cloudy
5:56 PM 48.0 °F - 26.1 °F 42% 29.91 in 10.0 mi NW 15.0 mph - N/A   Mostly Cloudy
6:56 PM 44.1 °F 36.8 °F 25.0 °F 47% 29.92 in 10.0 mi WNW 16.1 mph 23.0 mph N/A   Partly Cloudy
7:56 PM 43.0 °F 38.2 °F 25.0 °F 49% 29.94 in 10.0 mi WNW 8.1 mph - N/A   Partly Cloudy
8:56 PM 41.0 °F 39.0 °F 26.1 °F 55% 29.96 in 10.0 mi East 3.5 mph - N/A   Mostly Cloudy
9:56 PM 37.9 °F 34.4 °F 27.0 °F 65% 29.96 in 10.0 mi East 4.6 mph - N/A   Partly Cloudy
10:56 PM 37.0 °F 31.6 °F 27.0 °F 67% 29.96 in 10.0 mi South 6.9 mph - N/A   Partly Cloudy
11:56 PM 37.0 °F 32.4 °F 26.1 °F 65% 29.96 in 10.0 mi SSW 5.8 mph - N/A   Scattered Clouds